Location: Gökben Yaylas?
(36.8988°N, 29.6291°E)
Time: 11:41:48
(UTC+00:00)

SPOT 3 Rocket - Pass Details

Date: 15 May 2026
Orbit: 774 x 790 km, 98.5° (Epoch: 6 June)

Event Time Altitude Azimuth Distance (km) Brightness Sun altitude
Exits shadow 19:28:51 65° 143° (SE) 851 3.4 -24.0°
Maximum altitude 19:29:34 80° 75° (ENE) 793 3.4 -24.1°
Drops below altitude 10° 19:34:43 10° 350° (N) 2,330 6.8 -24.7°
Sets 19:37:02 0° 349° (N) 3,260 7.8 -25.0°
